When you browse on this site, cookies collect data to enhance your experience and personalize the content and advertising you see.
Visit our Privacy Policy to learn more. By continuing to use the site, you agree to this use of cookies and data.
  • In Hungary
  • List of Countries
  • For 7 days
  • Water Temperature
  • Satellite Maps
  • Weather Map
  • News
  • Weather Widgets
  • user-avatar
    Login

    Hourly Weather Khambhat

    Today, 20 March, Wednesday

    Time Temperature Precipitation Wind Pressure Humidity
    00:00 +29°C° 0 mm 3 mps 756 mmHg 26%
    01:00 +29°C° 0 mm 3 mps 756 mmHg 27%
    02:00 +28°C° 0 mm 4 mps 756 mmHg 28%
    03:00 +27°C° 0 mm 3 mps 756 mmHg 31%
    04:00 +26°C° 0 mm 3 mps 756 mmHg 35%
    05:00 +26°C° 0 mm 3 mps 755 mmHg 42%
    06:00 +26°C° 0 mm 3 mps 756 mmHg 43%
    07:00 +27°C° 0 mm 2 mps 756 mmHg 44%
    08:00 +28°C° 0 mm 2 mps 757 mmHg 46%
    09:00 +30°C° 0 mm 2 mps 757 mmHg 41%
    10:00 +33°C° 0 mm 3 mps 757 mmHg 36%
    11:00 +34°C° 0 mm 2 mps 757 mmHg 32%
    12:00 +35°C° 0 mm 3 mps 757 mmHg 29%
    13:00 +36°C° 0 mm 3 mps 756 mmHg 25%
    14:00 +38°C° 0 mm 3 mps 756 mmHg 22%
    15:00 +37°C° 0 mm 3 mps 755 mmHg 21%
    16:00 +37°C° 0 mm 3 mps 755 mmHg 21%
    17:00 +35°C° 0 mm 1 mps 755 mmHg 22%
    18:00 +35°C° 0 mm 2 mps 755 mmHg 26%
    19:00 +33°C° 0 mm 3 mps 756 mmHg 29%
    20:00 +30°C° 0 mm 3 mps 756 mmHg 33%
    21:00 +30°C° 0 mm 3 mps 756 mmHg 35%
    22:00 +29°C° 0 mm 3 mps 757 mmHg 38%
    23:00 +28°C° 0 mm 2 mps 757 mmHg 40%

    Tomorrow, 21 March, Thursday

    Time Temperature Precipitation Wind Pressure Humidity
    00:00 +27°C° 0 mm 3 mps 757 mmHg 41%
    01:00 +27°C° 0 mm 3 mps 756 mmHg 42%
    02:00 +26°C° 0 mm 3 mps 756 mmHg 43%
    03:00 +26°C° 0 mm 3 mps 756 mmHg 47%
    04:00 +25°C° 0 mm 3 mps 757 mmHg 50%
    05:00 +24°C° 0 mm 2 mps 757 mmHg 53%
    06:00 +25°C° 0 mm 3 mps 757 mmHg 52%
    07:00 +26°C° 0 mm 3 mps 758 mmHg 52%
    08:00 +26°C° 0 mm 3 mps 759 mmHg 51%
    09:00 +28°C° 0 mm 2 mps 759 mmHg 44%
    10:00 +30°C° 0 mm 2 mps 759 mmHg 37%
    11:00 +32°C° 0 mm 2 mps 759 mmHg 31%
    12:00 +34°C° 0 mm 2 mps 758 mmHg 26%
    13:00 +35°C° 0 mm 2 mps 757 mmHg 22%
    14:00 +37°C° 0 mm 2 mps 757 mmHg 18%
    15:00 +36°C° 0 mm 3 mps 757 mmHg 17%
    16:00 +36°C° 0 mm 3 mps 756 mmHg 17%
    17:00 +36°C° 0 mm 3 mps 756 mmHg 17%
    18:00 +35°C° 0 mm 2 mps 757 mmHg 20%
    19:00 +32°C° 0 mm 2 mps 757 mmHg 22%
    20:00 +30°C° 0 mm 1 mps 757 mmHg 25%
    21:00 +30°C° 0 mm 2 mps 758 mmHg 27%
    22:00 +29°C° 0 mm 2 mps 758 mmHg 29%
    23:00 +28°C° 0 mm 3 mps 758 mmHg 30%

    Day after tomorrow, 22 March, Friday

    Time Temperature Precipitation Wind Pressure Humidity
    00:00 +28°C° 0 mm 3 mps 758 mmHg 32%
    01:00 +27°C° 0 mm 2 mps 758 mmHg 33%
    02:00 +26°C° 0 mm 2 mps 757 mmHg 34%
    03:00 +26°C° 0 mm 2 mps 758 mmHg 34%
    04:00 +26°C° 0 mm 3 mps 758 mmHg 34%
    05:00 +25°C° 0 mm 3 mps 758 mmHg 34%
    06:00 +26°C° 0 mm 3 mps 758 mmHg 35%
    07:00 +27°C° 0 mm 4 mps 759 mmHg 36%
    08:00 +28°C° 0 mm 4 mps 760 mmHg 36%
    09:00 +30°C° 0 mm 4 mps 760 mmHg 30%
    10:00 +33°C° 0 mm 3 mps 760 mmHg 24%
    11:00 +36°C° 0 mm 3 mps 760 mmHg 18%
    12:00 +37°C° 0 mm 2 mps 759 mmHg 16%
    13:00 +38°C° 0 mm 2 mps 758 mmHg 15%
    14:00 +37°C° 0 mm 1 mps 757 mmHg 13%
    15:00 +39°C° 0 mm 1 mps 757 mmHg 12%
    16:00 +39°C° 0 mm 2 mps 756 mmHg 12%
    17:00 +39°C° 0 mm 2 mps 756 mmHg 12%
    18:00 +37°C° 0 mm 2 mps 756 mmHg 13%
    19:00 +35°C° 0 mm 2 mps 757 mmHg 14%
    20:00 +31°C° 0 mm 2 mps 757 mmHg 16%
    21:00 +31°C° 0 mm 2 mps 758 mmHg 16%
    22:00 +30°C° 0 mm 3 mps 758 mmHg 17%
    23:00 +30°C° 0 mm 3 mps 758 mmHg 17%

    23 March, Saturday

    Time Temperature Precipitation Wind Pressure Humidity
    00:00 +29°C° 0 mm 3 mps 758 mmHg 19%
    01:00 +28°C° 0 mm 4 mps 758 mmHg 20%
    02:00 +28°C° 0 mm 4 mps 757 mmHg 21%
    03:00 +27°C° 0 mm 4 mps 757 mmHg 21%
    04:00 +27°C° 0 mm 4 mps 757 mmHg 20%
    05:00 +27°C° 0 mm 4 mps 757 mmHg 20%
    06:00 +28°C° 0 mm 4 mps 758 mmHg 19%
    07:00 +29°C° 0 mm 5 mps 759 mmHg 18%
    08:00 +32°C° 0 mm 5 mps 759 mmHg 17%
    09:00 +34°C° 0 mm 5 mps 759 mmHg 15%
    10:00 +36°C° 0 mm 4 mps 759 mmHg 13%
    11:00 +40°C° 0 mm 4 mps 759 mmHg 12%
    12:00 +39°C° 0 mm 3 mps 758 mmHg 11%
    13:00 +40°C° 0 mm 2 mps 757 mmHg 11%
    14:00 +41°C° 0 mm 1 mps 757 mmHg 11%
    15:00 +41°C° 0 mm 2 mps 756 mmHg 10%
    16:00 +41°C° 0 mm 2 mps 756 mmHg 10%
    17:00 +40°C° 0 mm 3 mps 755 mmHg 10%
    18:00 +38°C° 0 mm 3 mps 756 mmHg 11%
    19:00 +36°C° 0 mm 2 mps 756 mmHg 12%
    20:00 +34°C° 0 mm 2 mps 757 mmHg 13%
    21:00 +33°C° 0 mm 3 mps 757 mmHg 14%
    22:00 +32°C° 0 mm 4 mps 757 mmHg 14%
    23:00 +30°C° 0 mm 4 mps 757 mmHg 15%

    24 March, Sunday

    Time Temperature Precipitation Wind Pressure Humidity
    00:00 +30°C° 0 mm 4 mps 757 mmHg 16%
    01:00 +29°C° 0 mm 4 mps 757 mmHg 17%
    02:00 +29°C° 0 mm 4 mps 756 mmHg 18%
    03:00 +28°C° 0 mm 4 mps 756 mmHg 19%
    04:00 +27°C° 0 mm 3 mps 756 mmHg 19%
    05:00 +27°C° 0 mm 3 mps 756 mmHg 20%
    06:00 +28°C° 0 mm 3 mps 757 mmHg 19%
    07:00 +29°C° 0 mm 3 mps 757 mmHg 18%
    08:00 +30°C° 0 mm 4 mps 758 mmHg 17%
    09:00 +33°C° 0 mm 3 mps 758 mmHg 16%
    10:00 +36°C° 0 mm 2 mps 758 mmHg 14%
    11:00 +37°C° 0 mm 1 mps 758 mmHg 12%
    12:00 +39°C° 0 mm 1 mps 757 mmHg 11%
    13:00 +40°C° 0 mm 2 mps 756 mmHg 11%
    14:00 +41°C° 0 mm 2 mps 755 mmHg 10%
    15:00 +41°C° 0 mm 2 mps 755 mmHg 10%
    16:00 +42°C° 0 mm 3 mps 755 mmHg 10%
    17:00 +42°C° 0 mm 3 mps 754 mmHg 10%
    18:00 +39°C° 0 mm 3 mps 755 mmHg 11%
    19:00 +37°C° 0 mm 3 mps 755 mmHg 12%
    20:00 +35°C° 0 mm 3 mps 756 mmHg 13%
    21:00 +34°C° 0 mm 3 mps 756 mmHg 15%
    22:00 +33°C° 0 mm 4 mps 756 mmHg 17%
    23:00 +32°C° 0 mm 4 mps 756 mmHg 19%

    25 March, Monday

    Time Temperature Precipitation Wind Pressure Humidity
    00:00 +32°C° 0 mm 4 mps 756 mmHg 20%
    01:00 +30°C° 0 mm 4 mps 756 mmHg 22%
    02:00 +30°C° 0 mm 4 mps 755 mmHg 23%
    03:00 +29°C° 0 mm 4 mps 755 mmHg 24%
    04:00 +29°C° 0 mm 3 mps 756 mmHg 25%
    05:00 +28°C° 0 mm 3 mps 756 mmHg 25%
    06:00 +29°C° 0 mm 3 mps 756 mmHg 25%
    07:00 +30°C° 0 mm 3 mps 757 mmHg 24%
    08:00 +31°C° 0 mm 3 mps 758 mmHg 24%
    09:00 +35°C° 0 mm 3 mps 758 mmHg 21%
    10:00 +37°C° 0 mm 3 mps 758 mmHg 19%
    11:00 +40°C° 0 mm 3 mps 758 mmHg 16%
    12:00 +42°C° 0 mm 3 mps 757 mmHg 16%
    13:00 +43°C° 0 mm 3 mps 756 mmHg 15%
    14:00 +44°C° 0 mm 3 mps 756 mmHg 14%
    15:00 +44°C° 0 mm 3 mps 755 mmHg 13%
    16:00 +44°C° 0 mm 4 mps 755 mmHg 13%
    17:00 +44°C° 0 mm 4 mps 755 mmHg 13%
    18:00 +42°C° 0 mm 5 mps 756 mmHg 14%
    19:00 +40°C° 0 mm 6 mps 756 mmHg 15%
    20:00 +38°C° 0 mm 6 mps 757 mmHg 16%
    21:00 +36°C° 0 mm 6 mps 757 mmHg 17%
    22:00 +35°C° 0 mm 5 mps 757 mmHg 18%
    23:00 +34°C° 0 mm 5 mps 758 mmHg 18%
    Show more